This is the latest recevied weather packets stored in our database for station/object K0WOI. If no packets are shown the sender has not sent any weather packets the latest 10 day(s).
| Time | Temp. | Humidity | Pressure | Rain* | Wind** | Luminosity | Snow |
|---|---|---|---|---|---|---|---|
| 1777765058 | 17.78° C | 31% | 1015.4 hPa | 0 mm | - | 47 W/m² | - |
| 1777764755 | 17.78° C | 29% | 1015 hPa | 0 mm | - | 52 W/m² | - |
| 1777764451 | 17.78° C | 29% | 1015.1 hPa | 0 mm | - | 52 W/m² | - |
| 1777764148 | 17.78° C | 29% | 1015.2 hPa | 0 mm | - | 51 W/m² | - |
| 1777763845 | 17.78° C | 30% | 1015.4 hPa | 0 mm | - | 108 W/m² | - |
| 1777763543 | 17.78° C | 29% | 1015.3 hPa | 0 mm | - | 162 W/m² | - |
| 1777763241 | 17.78° C | 32% | 1015.4 hPa | 0 mm | - | 147 W/m² | - |
| 1777762939 | 17.78° C | 29% | 1015.4 hPa | 0 mm | - | 106 W/m² | - |
| 1777762635 | 17.78° C | 29% | 1015.6 hPa | 0 mm | - | 84 W/m² | - |
| 1777762332 | 17.78° C | 30% | 1015.5 hPa | 0 mm | - | 62 W/m² | - |
| 1777762028 | 17.78° C | 28% | 1015.8 hPa | 0 mm | - | 70 W/m² | - |
| 1777761725 | 17.78° C | 30% | 1015.5 hPa | 0 mm | - | 249 W/m² | - |
| 1777761423 | 17.78° C | 31% | 1015.7 hPa | 0 mm | - | 192 W/m² | - |
| 1777761121 | 17.78° C | 27% | 1015.8 hPa | 0 mm | - | 234 W/m² | - |
| 1777760818 | 18.33° C | 26% | 1015.8 hPa | 0 mm | - | 308 W/m² | - |
| 1777760515 | 18.33° C | 30% | 1015.7 hPa | 0 mm | - | 151 W/m² | - |
| 1777760210 | 17.78° C | 27% | 1016 hPa | 0 mm | - | 161 W/m² | - |
| 1777759907 | 17.78° C | 29% | 1016 hPa | 0 mm | - | 123 W/m² | - |
| 1777759603 | 17.78° C | 32% | 1016 hPa | 0 mm | - | 250 W/m² | - |
| 1777759300 | 18.33° C | 30% | 1016.3 hPa | 0 mm | - | 72 W/m² | - |
| 1777758997 | 17.78° C | 29% | 1016.2 hPa | 0 mm | - | 149 W/m² | - |
| 1777758694 | 17.78° C | 29% | 1016 hPa | 0 mm | - | 347 W/m² | - |
| 1777758391 | 17.22° C | 28% | 1016.3 hPa | 0 mm | - | 442 W/m² | - |
| 1777758088 | 17.22° C | 29% | 1016.5 hPa | 0 mm | - | 527 W/m² | - |
| 1777757785 | 17.22° C | 27% | 1016.4 hPa | 0 mm | - | 401 W/m² | - |
* Rain latest hour (hover to see other rain measurements)
** Current wind speed in m/s (hover to see current wind gust speed)